LUMELITE 4

导读 | 星芒AI

LUMELITE 4 是一颗由日本公司 LUMELITE 开发的小型卫星,主要用于验证卫星通信和地球观测技术。该卫星采用低成本、模块化设计,旨在推动商业航天和教育领域的应用。LUMELITE 4 计划搭载实验性通信载荷和微型摄像系统,以测试其在轨性能。其发射将有助于积累卫星运行数据,并为未来更复杂的任务奠定基础。

基本信息
目录编号:
56309
目录名称:
LUMELITE 4
国际标识:
2023-057B
轨道中心:
EARTH
卫星名称:
LUMELITE 4
卫星全名:
--
卫星状态:
在轨 (已飞行968 天)
发射日期:
2023-04-22 UTC
国别 :
新加坡 (SG)
星等 :
--
轨道信息
数据来源 国际轨道数据
星历时间: 2025-12-14T23:46:38+0800
1天前
查看轨道信息
半长轴: 6891.517km
偏心率: 0.000643
轨道倾角: 9.994°
近地点辐角 259.699°
升交点赤经 14.111°
平近点角 100.250°
近地点: 508.95km
远地点: 517.814km
周期: 94.893分钟
每日圈数: 15.175064
详细信息
使用方式:
暂无
2D轨道图
3D轨道图
轨道高度分析图
轨道倾角分析图
轨道综合分析图
查看轨道综合分析图